This demonstration page uses our WeatherBlox Daily Observations layout. Learn more.

Left ArrowRight Arrow

40.92945, -100.16068

Hourly Observations for February 10, 2022

Temp ( °F °C ) Dew Point ( °F °C ) Humidity (%) Winds ( mph kmh ) Pressure ( in mb ) Visibility ( mi km ) Precip ( " mm )
12:15 am 00:15 Clear 26 -3.1 24 -4.7 89 89 NW 7 11 30.24 1024 10 16 0.00 0.00
12:35 am 00:35 Clear 25 -4 22 -5.3 91 91 NW 8 13 30.27 1025 10 16 0.00 0.00
12:55 am 00:55 Clear 27 -3 25 -3.9 94 94 NW 9 15 30.26 1025 10 16 0.00 0.00
1:15 am 01:15 Clear 28 -2.4 26 -3.3 94 94 NW 9 15 30.26 1025 10 16 0.00 0.00
1:35 am 01:35 Clear 27 -2.8 25 -3.8 93 93 NW 7 11 30.27 1025 10 16 0.00 0.00
1:55 am 01:55 Clear 25 -4 23 -4.9 94 94 NW 8 13 30.27 1025 10 16 0.00 0.00
2:15 am 02:15 Clear 24 -4.3 23 -5.1 94 94 WNW 6 9 30.28 1025 10 16 0.00 0.00
2:35 am 02:35 Clear 22 -5.5 21 -6.3 94 94 WNW 6 9 30.29 1026 10 16 0.00 0.00
2:55 am 02:55 Clear 22 -5.6 20 -6.5 93 93 WNW 7 11 30.28 1026 10 16 0.00 0.00
3:15 am 03:15 Clear 22 -5.8 20 -6.5 95 95 WNW 8 13 30.29 1026 10 16 0.00 0.00
3:35 am 03:35 Clear 21 -5.9 20 -6.7 94 94 WNW 8 13 30.29 1026 10 16 0.00 0.00
3:55 am 03:55 Clear 21 -6.1 19 -7 93 93 W 7 11 30.29 1026 10 16 0.00 0.00
4:15 am 04:15 Clear 21 -6.3 19 -7.1 94 94 W 3 6 30.28 1025 10 16 0.00 0.00
4:35 am 04:35 Clear 22 -5.8 20 -6.6 94 94 Calm 30.28 1025 10 16 0.00 0.00
4:55 am 04:55 Clear 21 -6.1 19 -7 93 93 W 5 7 30.28 1025 7 11 0.00 0.00
5:15 am 05:15 Clear 19 -7.5 17 -8.6 92 92 W 5 7 30.29 1026 10 16 0.00 0.00
5:35 am 05:35 Clear 18 -7.7 16 -8.7 93 93 W 9 15 30.30 1026 10 16 0.00 0.00
5:55 am 05:55 Clear 22 -5.8 20 -6.7 93 93 W 6 9 30.27 1025 10 16 0.00 0.00
6:15 am 06:15 Clear 20 -6.7 18 -7.8 92 92 W 6 9 30.28 1025 10 16 0.00 0.00
6:35 am 06:35 Clear 15 -9.2 13 -10.6 90 90 W 3 6 30.29 1026 10 16 0.00 0.00
6:55 am 06:55 Clear with Mist and Fog 14 -10 11 -11.5 89 89 Calm 30.30 1026 5 8 0.00 0.00
7:15 am 07:15 Partly Cloudy with Mist and Fog 14 -10 11 -11.5 89 89 Calm 30.30 1026 2 3 0.00 0.00
7:35 am 07:35 Cloudy with Mist and Fog 14 -10.1 11 -11.5 90 90 Calm 30.29 1026 1 1 0.00 0.00
7:55 am 07:55 Mostly Cloudy with Mist and Fog 15 -9.4 13 -10.7 90 90 Calm 30.27 1025 5 8 0.00 0.00
8:15 am 08:15 Sunny with Mist and Fog 16 -9.1 13 -10.3 91 91 Calm 30.26 1025 5 8 0.00 0.00
8:35 am 08:35 Sunny with Mist and Fog 20 -6.8 18 -7.8 93 93 Calm 30.24 1024 5 8 0.00 0.00
8:55 am 08:55 Partly Cloudy 26 -3.3 25 -3.8 96 96 SW 7 11 30.19 1022 10 16 0.00 0.00
9:15 am 09:15 Partly Cloudy 30 -1 29 -1.4 97 97 SW 8 13 30.15 1021 10 16 0.00 0.00
9:35 am 09:35 Sunny 32 0 32 -0.1 99 99 SSW 9 15 30.13 1020 10 16 0.00 0.00
9:55 am 09:55 Sunny 33 0.8 33 0.3 97 97 SSW 7 11 30.10 1019 10 16 0.00 0.00
10:15 am 10:15 Sunny 37 2.9 32 -0.2 80 80 WSW 9 15 30.07 1018 10 16 0.00 0.00
10:35 am 10:35 Sunny 40 4.4 32 -0.2 72 72 SW 13 20 30.04 1017 10 16 0.00 0.00
10:55 am 10:55 Sunny 42 5.8 32 0 67 67 SW 15 24 30.01 1016 10 16 0.00 0.00
11:15 am 11:15 Sunny 45 7.1 32 -0.2 60 60 WSW 13 20 29.99 1016 10 16 0.00 0.00
11:35 am 11:35 Mostly Cloudy 47 8.6 32 -0.1 55 55 SW 13 20 29.96 1015 10 16 0.00 0.00
11:55 am 11:55 Mostly Cloudy 49 9.3 32 0 53 53 SW 14 22 29.94 1014 10 16 0.00 0.00
12:15 pm 12:15 Sunny 49 9.7 32 0.2 52 52 WSW 14 22 29.92 1013 10 16 0.00 0.00
12:35 pm 12:35 Sunny 51 10.7 33 0.5 50 50 SW 15 24 29.89 1012 10 16 0.00 0.00
12:55 pm 12:55 Sunny 53 11.5 33 0.6 47 47 WSW 15 24 29.87 1011 10 16 0.00 0.00
1:15 pm 13:15 Sunny 55 13 33 0.3 42 42 SW 21 33 29.82 1010 10 16 0.00 0.00
1:35 pm 13:35 Sunny 57 14 32 0.1 39 39 WSW 13 20 29.79 1009 10 16 0.00 0.00
1:55 pm 13:55 Mostly Cloudy 61 16.2 31 -0.5 32 32 W 22 35 29.77 1008 10 16 0.00 0.00
2:15 pm 14:15 Cloudy 60 15.4 32 -0.2 35 35 WSW 20 31 29.75 1008 10 16 0.00 0.00
2:35 pm 14:35 Cloudy 59 15.2 30 -1 33 33 W 16 26 29.73 1007 10 16 0.00 0.00
2:55 pm 14:55 Mostly Cloudy 62 16.8 29 -1.8 28 28 W 18 30 29.71 1006 10 16 0.00 0.00
3:15 pm 15:15 Partly Cloudy 63 17.3 27 -2.6 26 26 W 28 44 29.70 1006 10 16 0.00 0.00
3:35 pm 15:35 Sunny 63 17 27 -2.7 26 26 W 20 31 29.69 1005 10 16 0.00 0.00
3:55 pm 15:55 Sunny 63 17.3 27 -2.6 26 26 W 22 35 29.68 1005 10 16 0.00 0.00
4:15 pm 16:15 Sunny 63 17.4 27 -2.6 26 26 W 18 30 29.67 1005 10 16 0.00 0.00
4:35 pm 16:35 Sunny 64 17.7 28 -2.1 26 26 W 17 28 29.64 1004 10 16 0.00 0.00
4:55 pm 16:55 Sunny 63 17.1 28 -2.5 26 26 W 20 31 29.65 1004 10 16 0.00 0.00
5:15 pm 17:15 Sunny 63 17 28 -2.1 27 27 W 18 30 29.63 1003 10 16 0.00 0.00
5:35 pm 17:35 Sunny 62 16.4 28 -2.1 28 28 W 13 20 29.64 1004 10 16 0.00 0.00
5:55 pm 17:55 Partly Cloudy 59 15.1 28 -2.5 30 30 W 10 17 29.66 1004 10 16 0.00 0.00
6:15 pm 18:15 Mostly Cloudy 57 13.9 28 -2.5 32 32 W 10 17 29.67 1005 10 16 0.00 0.00
6:35 pm 18:35 Cloudy 56 13.6 28 -2.5 33 33 W 10 17 29.66 1004 10 16 0.00 0.00
6:55 pm 18:55 Cloudy 56 13.5 27 -2.7 33 33 WSW 9 15 29.66 1004 10 16 0.00 0.00
7:15 pm 19:15 Cloudy 55 12.8 27 -2.6 34 34 WSW 8 13 29.66 1004 10 16 0.00 0.00
7:35 pm 19:35 Cloudy 54 12.2 27 -2.6 36 36 WSW 7 11 29.66 1004 10 16 0.00 0.00
7:55 pm 19:55 Cloudy 55 12.7 28 -2.5 35 35 WSW 9 15 29.65 1004 10 16 0.00 0.00
8:15 pm 20:15 Cloudy 55 12.5 28 -2.5 35 35 WSW 9 15 29.65 1004 10 16 0.00 0.00
8:35 pm 20:35 Cloudy 55 12.5 28 -2.5 35 35 WSW 10 17 29.64 1004 10 16 0.00 0.00
8:55 pm 20:55 Cloudy 55 13 28 -2.2 35 35 W 14 22 29.63 1004 10 16 0.00 0.00
9:15 pm 21:15 Cloudy 54 12.2 28 -2.1 37 37 W 13 20 29.63 1003 10 16 0.00 0.00
9:35 pm 21:35 Cloudy 54 12 28 -2 38 38 W 14 22 29.62 1003 10 16 0.00 0.00
9:55 pm 21:55 Cloudy 54 12.2 29 -1.8 38 38 W 12 19 29.62 1003 10 16 0.00 0.00
10:15 pm 22:15 Cloudy 54 12 29 -1.7 39 39 W 14 22 29.61 1003 10 16 0.00 0.00
10:35 pm 22:35 Cloudy 54 12.2 29 -1.5 39 39 W 16 26 29.62 1003 10 16 0.00 0.00
10:55 pm 22:55 Cloudy 54 12.1 29 -1.5 39 39 W 14 22 29.62 1003 10 16 0.00 0.00
11:15 pm 23:15 Cloudy 53 11.7 29 -1.4 40 40 W 13 20 29.63 1003 10 16 0.00 0.00
11:35 pm 23:35 Cloudy 53 11.6 30 -1.3 41 41 WNW 13 20 29.63 1003 10 16 0.00 0.00
11:55 pm 23:55 Cloudy 53 11.9 30 -1.1 41 41 NW 14 22 29.63 1004 10 16 0.00 0.00

Powered by AerisWeather